Time,TemperatureF,DewpointF,PressureIn,WindDirection,WindDirectionDegrees,WindSpeedMPH,WindSpeedGustMPH,Humidity,HourlyPrecipIn,Conditions,Clouds,dailyrainin,SoftwareType,DateUTC
2014-01-29 00:23:00,11.0,-7.0,30.21,WSW,239,1.0,5.0,43,0.00,,,0.00,,2014-01-29 04:23:00,
2014-01-29 00:53:00,11.0,-7.0,30.20,SSW,213,0.0,3.0,44,0.00,,,0.00,,2014-01-29 04:53:00,
2014-01-29 01:22:00,11.0,-7.0,30.20,SW,231,0.0,2.0,44,0.00,,,0.00,,2014-01-29 05:22:00,
2014-01-29 01:53:00,11.0,-6.0,30.22,SW,229,0.0,2.0,46,0.00,,,0.00,,2014-01-29 05:53:00,
2014-01-29 02:23:00,11.0,-6.0,30.20,West,269,0.0,3.0,45,0.00,,,0.00,,2014-01-29 06:23:00,
2014-01-29 02:52:00,10.0,-7.0,30.19,WSW,242,0.0,0.0,45,0.00,,,0.00,,2014-01-29 06:52:00,
2014-01-29 03:22:00,10.0,-5.0,30.20,WSW,242,0.0,1.0,49,0.00,,,0.00,,2014-01-29 07:22:00,
2014-01-29 03:52:00,9.0,-5.0,30.18,WSW,242,0.0,0.0,51,0.00,,,0.00,,2014-01-29 07:52:00,
2014-01-29 04:22:00,10.0,-4.0,30.19,WSW,242,0.0,0.0,52,0.00,,,0.00,,2014-01-29 08:22:00,
2014-01-29 04:52:00,10.0,-3.0,30.19,WSW,242,0.0,1.0,54,0.00,,,0.00,,2014-01-29 08:52:00,
2014-01-29 05:22:00,11.0,0.0,30.18,WSW,242,0.0,0.0,60,0.00,,,0.00,,2014-01-29 09:22:00,
2014-01-29 05:53:00,12.0,2.0,30.16,SW,224,0.0,1.0,62,0.00,,,0.00,,2014-01-29 09:53:00,
2014-01-29 06:22:00,12.0,1.0,30.16,SSE,147,0.0,2.0,61,0.00,,,0.00,,2014-01-29 10:22:00,
2014-01-29 06:53:00,13.0,3.0,30.17,SE,145,1.0,2.0,63,0.00,,,0.00,,2014-01-29 10:53:00,
2014-01-29 07:22:00,13.0,3.0,30.15,SSE,154,0.0,2.0,65,0.00,,,0.00,,2014-01-29 11:22:00,
2014-01-29 07:53:00,14.0,4.0,30.13,SSE,157,2.0,6.0,63,0.00,,,0.00,,2014-01-29 11:53:00,
2014-01-29 08:22:00,14.0,3.0,30.13,SSE,153,4.0,8.0,60,0.00,,,0.00,,2014-01-29 12:22:00,
2014-01-29 08:53:00,14.0,3.0,30.11,SSE,160,5.0,9.0,60,0.00,,,0.00,,2014-01-29 12:53:00,
2014-01-29 09:22:00,15.0,4.0,30.10,SSE,147,5.0,10.0,62,0.00,,,0.00,,2014-01-29 13:22:00,
2014-01-29 09:52:00,15.0,5.0,30.05,SE,144,5.0,9.0,64,0.00,,,0.00,,2014-01-29 13:52:00,
2014-01-29 10:22:00,15.0,5.0,30.06,SSE,153,7.0,14.0,64,0.00,,,0.00,,2014-01-29 14:22:00,
2014-01-29 10:52:00,16.0,6.0,30.03,SSE,151,6.0,10.0,65,0.00,,,0.00,,2014-01-29 14:52:00,
2014-01-29 11:22:00,16.0,5.0,30.03,SSE,149,6.0,16.0,62,0.00,,,0.00,,2014-01-29 15:22:00,
2014-01-29 11:53:00,15.0,7.0,30.01,SSE,149,5.0,12.0,70,0.00,,,0.00,,2014-01-29 15:53:00,
2014-01-29 12:23:00,15.0,9.0,29.95,SE,145,7.0,12.0,76,0.00,,,0.00,,2014-01-29 16:23:00,
2014-01-29 12:53:00,15.0,10.0,29.95,SSE,154,7.0,12.0,79,0.00,,,0.00,,2014-01-29 16:53:00,
2014-01-29 13:22:00,15.0,10.0,29.93,SSE,147,8.0,13.0,80,0.00,,,0.00,,2014-01-29 17:22:00,
2014-01-29 13:42:00,15.0,10.0,29.91,SSE,152,5.0,12.0,81,0.00,,,0.00,,2014-01-29 17:42:00,
2014-01-29 13:52:00,15.0,10.0,29.91,SSE,156,5.0,10.0,81,0.00,,,0.00,,2014-01-29 17:52:00,
2014-01-29 14:22:00,15.0,11.0,29.88,SSE,159,4.0,12.0,82,0.00,,,0.00,,2014-01-29 18:22:00,
2014-01-29 14:53:00,15.0,11.0,29.87,SSE,167,4.0,12.0,82,0.00,,,0.00,,2014-01-29 18:53:00,
2014-01-29 15:22:00,16.0,11.0,29.87,South,181,6.0,10.0,81,0.00,,,0.00,,2014-01-29 19:22:00,
2014-01-29 15:52:00,16.0,11.0,29.85,SSE,166,2.0,7.0,81,0.00,,,0.00,,2014-01-29 19:52:00,
2014-01-29 16:22:00,16.0,11.0,29.84,SSE,158,2.0,7.0,82,0.00,,,0.00,,2014-01-29 20:22:00,
2014-01-29 16:53:00,16.0,12.0,29.83,SSE,157,1.0,5.0,83,0.00,,,0.00,,2014-01-29 20:53:00,
2014-01-29 17:22:00,15.0,11.0,29.81,SSE,162,1.0,5.0,83,0.00,,,0.00,,2014-01-29 21:22:00,
2014-01-29 17:53:00,15.0,11.0,29.81,South,180,1.0,3.0,84,0.00,,,0.00,,2014-01-29 21:53:00,
2014-01-29 18:23:00,15.0,11.0,29.80,SSE,164,1.0,3.0,85,0.00,,,0.00,,2014-01-29 22:23:00,
2014-01-29 18:53:00,15.0,11.0,29.80,SSE,165,0.0,2.0,85,0.00,,,0.00,,2014-01-29 22:53:00,
2014-01-29 19:22:00,15.0,11.0,29.80,SSE,164,1.0,3.0,85,0.00,,,0.00,,2014-01-29 23:22:00,
2014-01-29 19:52:00,14.0,10.0,29.79,SSE,165,2.0,3.0,85,0.00,,,0.00,,2014-01-29 23:52:00,
2014-01-29 20:22:00,14.0,11.0,29.80,South,171,2.0,7.0,86,0.00,,,0.00,,2014-01-30 00:22:00,
2014-01-29 20:52:00,14.0,11.0,29.80,SSE,167,2.0,5.0,87,0.00,,,0.00,,2014-01-30 00:52:00,
2014-01-29 21:22:00,15.0,12.0,29.80,SSW,205,2.0,3.0,88,0.00,,,0.00,,2014-01-30 01:22:00,
2014-01-29 21:52:00,15.0,12.0,29.81,South,187,3.0,8.0,88,0.00,,,0.00,,2014-01-30 01:52:00,
2014-01-29 22:22:00,16.0,13.0,29.82,SW,236,2.0,8.0,88,0.00,,,0.00,,2014-01-30 02:22:00,
2014-01-29 23:22:00,15.0,12.0,29.83,SW,225,0.0,3.0,88,0.00,,,0.00,,2014-01-30 03:22:00,
2014-01-29 23:53:00,15.0,12.0,29.83,SW,225,0.0,2.0,88,0.00,,,0.00,,2014-01-30 03:53:00,